Regional Weather Roundup
Issued by NWS

Home | Current Version | Previous Version | Text Only | Print | Product List | Glossary Off
Versions: 1 2 3 4 5 6 7 8 9 10 11 12 13 14 15 16 17 18 19 20 21 22 23 24 25 26 27 28 29 30 31 32 33 34 35 36 37 38 39 40 41 42 43 44 45 46 47 48 49 50

896
ASUS43 KDTX 260010
RWRMI
MICHIGAN HOURLY REGIONAL WEATHER ROUNDUP
NATIONAL WEATHER SERVICE DETROIT/PONTIAC MI
700 PM EST SUN FEB 25 2018

NOTE: "FAIR" INDICATES FEW OR NO CLOUDS BELOW 12,000 FEET WITH NO
SIGNIFICANT WEATHER AND/OR OBSTRUCTION TO VISIBILITY.

MIZ047>049-052>055-059>063-066>070-074>076-081>083-260100-
SOUTHEAST LOWER MICHIGAN

CITY           SKY/WX    TMP DP  RH WIND       PRES   REMARKS
ADRIAN         FAIR      38  27  64 W10       30.03R WCI  31
6HR MIN TEMP:  38; 6HR MAX TEMP:  42;

ALMA           FAIR      37  22  53 SW13G24   29.94R WCI  29
6HR MIN TEMP:  37; 6HR MAX TEMP:  41;

ANN ARBOR      FAIR      38  27  64 SW12      29.99R WCI  30
BAD AXE        FAIR      37  23  55 W20G31    29.89R WCI  27
6HR MIN TEMP:  37; 6HR MAX TEMP:  42;

CARO           FAIR      38  23  54 SW20G26   29.92R WCI  27
DETROIT CITY   FAIR      41  25  53 W18G25    29.97R
6HR MIN TEMP:  41; 6HR MAX TEMP:  45;

DETROIT        FAIR      41  27  57 SW21      30.00R
6HR MIN TEMP:  41; 6HR MAX TEMP:  45;

FLINT          FAIR      39  21  48 W10       29.96R WCI  32
6HR MIN TEMP:  39; 6HR MAX TEMP:  44;

GROSSE ILE     FAIR      40  28  63 W13G23    29.99R WCI  32
6HR MIN TEMP:  40; 6HR MAX TEMP:  44;

HILLSDALE      FAIR      37  27  65 SW6       30.01R WCI  33
HOWELL         FAIR      39  22  50 W15G22    29.97R WCI  31
6HR MIN TEMP:  39; 6HR MAX TEMP:  44;


CITY           SKY/WX    TMP DP  RH WIND       PRES   REMARKS
JACKSON        FAIR      39  26  59 SW15      29.99R WCI  31
6HR MIN TEMP:  39; 6HR MAX TEMP:  43;

LAMBERTVILLE   FAIR      39  28  64 W12G17    30.04R WCI  32
6HR MIN TEMP:  39; 6HR MAX TEMP:  42;

LANSING        FAIR      39  20  46 W13       29.98R WCI  31
6HR MIN TEMP:  39; 6HR MAX TEMP:  44;

LAPEER         FAIR      41  20  43 W18G25    29.93R
6HR MIN TEMP:  41; 6HR MAX TEMP:  46;

MASON          FAIR      40  16  37 W5        29.99R
6HR MIN TEMP:  40; 6HR MAX TEMP:  45;

MONROE         FAIR      39  27  62 W17       30.02R WCI  30
6HR MIN TEMP:  39; 6HR MAX TEMP:  43;

MT. CLEMENS    PTCLDY    41  28  61 SW15G21   29.94R
6HR MIN TEMP:  41; 6HR MAX TEMP:  46;

PONTIAC        FAIR      40  25  55 W12       29.94R WCI  33
6HR MIN TEMP:  40; 6HR MAX TEMP:  45;

PORT HOPE        N/A     39  24  55 SW18G32   29.83R WCI  30
6HR MIN TEMP:  38; 6HR MAX TEMP:  43;

PORT HURON     FAIR      41  25  52 SW6       29.94R
TRI CITIES     FAIR      37  22  54 SW20G29   29.92R WCI  27
6HR MIN TEMP:  37; 6HR MAX TEMP:  42;

MIDLAND        FAIR      38  23  53 SW14G22   29.90R WCI  30
6HR MIN TEMP:  38; 6HR MAX TEMP:  43;

TROY           FAIR      42  26  54 SW10G18   29.98R
SAGINAW HB     FAIR      37  23  56 SW20G26   29.92R WCI  27
$$
MIZ043>046-050>051-056>058-064>065-071>073-077>080-260100-
SOUTHWEST LOWER MICHIGAN

CITY           SKY/WX    TMP DP  RH WIND       PRES   REMARKS
BATTLE CREEK   FAIR      39  21  48 W15       30.00R WCI  31
6HR MIN TEMP:  39; 6HR MAX TEMP:  45;

BENTON HARBOR  FAIR      40  22  48 SW17G25   30.03R WCI  31
6HR MIN TEMP:  40; 6HR MAX TEMP:  43;

BIG RAPIDS     FAIR      35  22  58 SW12G24   29.89R WCI  27
6HR MIN TEMP:  35; 6HR MAX TEMP:  38;

COLDWATER      FAIR      39  26  58 SW12G17   30.03R WCI  32
6HR MIN TEMP:  38; 6HR MAX TEMP:  43;

FREMONT        FAIR      36  21  55 SW14G23   29.93R WCI  27
6HR MIN TEMP:  36; 6HR MAX TEMP:  39;

HOLLAND        FAIR      38  26  62 SW16      29.99R WCI  29
6HR MIN TEMP:  38; 6HR MAX TEMP:  41;

GRAND RAPIDS   FAIR      39  23  52 SW21G29   29.97R WCI  29
6HR MIN TEMP:  38; 6HR MAX TEMP:  41;

IONIA          FAIR      37  21  52 SW18      29.96R WCI  27
6HR MIN TEMP:  37; 6HR MAX TEMP:  43;

KALAMAZOO      FAIR      40  21  46 W13G20    30.02R WCI  32
6HR MIN TEMP:  40; 6HR MAX TEMP:  46;

LUDINGTON      FAIR      35  29  79 SW13G18   29.88R WCI  26
6HR MIN TEMP:  35; 6HR MAX TEMP:  37;

MARSHALL       FAIR      38  18  44 W10G18    30.00R WCI  31
6HR MIN TEMP:  38; 6HR MAX TEMP:  44;

MOUNT PLEASANT FAIR      38  22  52 SW20G29   29.90R WCI  28
6HR MIN TEMP:  38; 6HR MAX TEMP:  41;

MUSKEGON       FAIR      37  26  64 SW16      29.97R WCI  28
6HR MIN TEMP:  37; 6HR MAX TEMP:  41;

SOUTH HAVEN    FAIR      41  24  51 SW15G23   30.02R
$$
MIZ016>042-260100-
NORTHERN LOWER MICHIGAN

CITY           SKY/WX    TMP DP  RH WIND       PRES   REMARKS
ALPENA         FAIR      37  20  50 W20G30    29.77R WCI  27
6HR MIN TEMP:  37; 6HR MAX TEMP:  42;

BEAVER ISLAND  CLOUDY    32  24  70 SW21G33   29.74R WCI  20
6HR MIN TEMP:  31; 6HR MAX TEMP:  32;

BELLAIRE       CLOUDY    35  25  66 SW13G21   29.80R WCI  26
6HR MIN TEMP:  33; 6HR MAX TEMP:  36;

CADILLAC       FAIR      32  21  63 SW20G26   29.83R WCI  20
CHARLEVOIX     FAIR      34  24  66 SW16G30   29.79R WCI  23
6HR MIN TEMP:  32; 6HR MAX TEMP:  34;

FRANKFORT      CLOUDY    37  28  70 SW9G18    29.84R WCI  30
GAYLORD        MOCLDY    32  21  64 SW15G30   29.76R WCI  22
6HR MIN TEMP:  31; 6HR MAX TEMP:  35;

GRAYLING       FAIR      34  20  57 SW15G23   29.79R WCI  24
6HR MIN TEMP:  33; 6HR MAX TEMP:  37;

HARBOR SPRINGS CLOUDY    33  23  66 SW17G29   29.76R WCI  22
HOUGHTON LAKE  FAIR      34  20  56 SW17G33   29.82R WCI  23
6HR MIN TEMP:  34; 6HR MAX TEMP:  38;

MANISTEE       FAIR      36  24  62 SW13      29.87R WCI  27
OSCODA         FAIR      37  18  47 SW23G33   29.81R WCI  25
6HR MIN TEMP:  37; 6HR MAX TEMP:  43;

PELLSTON       CLOUDY    34  23  64 SW14G31   29.74R WCI  25
6HR MIN TEMP:  31; 6HR MAX TEMP:  34;

ROGERS CITY    FAIR      35  20  55 W20G35    29.76R WCI  24
TRAVERSE CITY  FAIR      37  22  54 SW14G24   29.80R WCI  28
6HR MIN TEMP:  35; 6HR MAX TEMP:  38;

$$
MIZ007>008-015-260100-
EASTERN UPPER MICHIGAN

CITY           SKY/WX    TMP DP  RH WIND       PRES   REMARKS
KINROSS        CLOUDY    28  24  85 SW17G33   29.69R WCI  16
6HR MIN TEMP:  28; 6HR MAX TEMP:  29; 6HR PCP: TRACE;

NEWBERRY       CLOUDY    27  27  97 SW23      29.67R WCI  13
6HR MIN TEMP:  27; 6HR MAX TEMP:  28;

S. S. MARIE    CLOUDY    31  23  72 SW22G38   29.67R WCI  18
6HR MIN TEMP:  31; 6HR MAX TEMP:  33; 6HR PCP: TRACE;

MUNISING         N/A     30  20  66 VRB6G18   29.70R WCI  24
6HR MIN TEMP:  29; 6HR MAX TEMP:  33;

$$
MIZ004>006-011>014-085-260100-
CENTRAL UPPER MICHIGAN

CITY           SKY/WX    TMP DP  RH WIND       PRES   REMARKS
MANISTIQUE     CLOUDY    28  27  94 SW7       29.72R WCI  21
6HR MIN TEMP:  27; 6HR MAX TEMP:  28;

ESCANABA       FAIR      27  21  78 SW8       29.75R WCI  19
6HR MIN TEMP:  27; 6HR MAX TEMP:  32;

MENOMINEE      FAIR      30  22  72 W14G22    29.79R WCI  19
6HR MIN TEMP:  28; 6HR MAX TEMP:  33;

SAWYER-GWINN   CLOUDY    27  18  69 W15G22    29.68R WCI  15
$$
MIZ001>003-009>011-084-260100-
WESTERN UPPER MICHIGAN

CITY           SKY/WX    TMP DP  RH WIND       PRES   REMARKS
IRON MOUNTAIN  FAIR      28  17  63 W9        29.71R WCI  19
6HR MIN TEMP:  26; 6HR MAX TEMP:  28;

HOUGHTON       CLOUDY    27  18  69 W30G38    29.60R HAZE    WCI  11
6HR MIN TEMP:  26; 6HR MAX TEMP:  27; 6HR PCP:  0.08;

COPPER HARBOR    N/A     29  20  69 NW15G28   29.59R WCI  18
6HR MIN TEMP:  28; 6HR MAX TEMP:  30;

IRONWOOD       FAIR      25  16  68 W15       29.72R WCI  13
6HR MIN TEMP:  24; 6HR MAX TEMP:  26; 6HR PCP: TRACE;

$$

ABBREVIATIONS USED IN REMARKS
   TC - TEMPERATURE IN CELSIUS
  WCI - WIND CHILL INDEX
   HX - HEAT INDEX
  VSB - VISIBILITY





USA.gov is the U.S. government's official web portal to all federal, state and local government web resources and services.